Wind_Speed
21 21 20 22 26 23 22 21 11 6 10 26 27 24 20 17 18 15 15 20 25 31 37 42 44 41 44 46 45 44 43 41 39 40 38 36 36 34
21 21 19 21 24 24 23 23 19 11 5 12 19 19 22 28 31 33 35 38 38 30 30 33 37 41 42 45 46 47 46 44 43 41 42 41 39 39
21 21 20 22 20 20 23 23 21 19 9 15 24 25 20 20 24 26 27 25 27 33 29 28 30 33 37 41 44 47 47 47 47 45 43 42 42 41
22 20 20 21 17 19 21 22 20 19 17 18 19 28 25 25 22 24 26 26 21 14 14 10 13 16 22 32 37 42 45 45 45 45 45 44 45 45
20 18 17 18 17 19 20 23 21 19 14 14 18 23 20 19 26 24 17 14 19 26 27 28 27 22 22 23 27 33 39 43 44 42 44 44 43 43
17 17 15 16 16 19 18 23 24 22 16 14 16 20 21 24 20 20 28 30 29 23 25 27 30 29 28 27 31 30 25 29 37 40 40 42 43 41
16 16 17 14 13 16 18 23 23 18 15 16 15 14 15 22 23 21 18 28 31 18 16 14 19 23 27 27 36 35 34 34 35 33 34 36 39 44
17 18 18 13 15 15 13 19 17 16 14 14 14 17 17 18 19 24 21 20 8 10 31 37 29 29 21 21 31 34 35 32 28 26 29 34 41 44
13 17 15 14 13 13 17 21 16 15 15 16 14 14 20 23 26 24 21 19 19 30 27 26 27 30 27 27 32 31 30 27 27 29 27 26 26 29
13 13 12 11 14 17 20 22 19 19 18 15 13 17 20 23 21 24 25 25 22 22 19 16 26 29 25 27 27 27 28 31 35 37 32 30 30 30
13 12 10 12 18 16 17 19 21 21 18 14 17 19 19 16 16 17 16 18 16 18 24 12 13 26 28 26 16 18 21 26 29 33 35 34 37 34
15 13 9 11 13 11 13 18 25 24 22 21 21 18 16 15 14 12 18 15 16 11 7 23 20 18 12 12 12 23 24 26 22 21 22 30 32 33
19 16 13 12 11 13 15 19 23 22 22 20 20 18 18 17 17 17 16 17 16 17 24 21 14 21 10 16 20 32 23 24 27 27 25 27 31 32
23 20 17 15 15 17 19 20 22 19 20 20 19 19 20 21 22 20 20 21 21 23 25 24 20 20 21 22 19 16 30 34 24 20 23 24 27 30
28 24 21 20 20 21 20 20 20 19 19 21 21 20 23 24 24 25 24 23 23 23 22 21 23 22 19 19 18 26 25 19 31 13 26 25 25 28
22 21 21 21 22 22 22 20 21 20 19 21 22 24 25 25 26 25 27 26 25 22 19 19 20 21 23 21 22 24 27 16 23 27 22 24 25 26
21 21 20 21 22 21 23 22 22 21 22 23 25 25 24 24 25 26 27 26 19 19 18 21 21 22 24 27 27 23 23 24 24 24 25 27 31 26
18 19 21 22 23 22 24 25 24 24 24 24 26 26 24 23 23 23 24 23 21 19 18 19 23 22 19 20 20 24 18 19 22 31 31 22 23 21
22 23 24 22 22 25 24 23 26 25 24 26 27 25 25 24 22 20 20 20 22 21 20 21 20 16 9 10 17 17 18 20 31 29 25 24 25 25
19 22 22 25 25 25 25 24 25 25 23 21 23 24 25 24 21 20 19 22 22 21 20 19 19 19 16 12 17 23 22 24 22 24 28 31 32 32
19 21 23 24 25 24 26 26 27 26 23 24 26 25 25 24 25 23 22 25 25 23 20 20 23 24 25 27 15 20 21 23 25 28 28 27 28 27
21 22 23 24 25 25 25 26 26 25 25 24 24 26 28 27 26 27 21 24 23 22 24 25 27 27 25 20 20 24 18 25 27 28 27 29 27 7
21 23 24 25 25 26 26 25 26 27 26 27 27 27 26 21 26 27 25 25 24 25 24 25 22 23 24 23 24 19 24 24 23 28 27 25 28 31
Wind_Direction
5 4 360 354 354 354 354 3 331 340 296 278 271 278 271 259 280 288 294 289 286 283 281 280 273 262 254 251 252 253 255 255 253 252 248 245 247 249
4 4 6 354 345 350 359 2 6 10 312 337 327 305 291 276 279 285 286 281 279 287 287 283 282 274 267 260 254 253 254 256 257 256 255 254 251 249
4 1 0 356 355 352 354 2 7 14 325 309 333 315 325 311 296 290 287 289 280 271 278 281 281 277 273 267 263 259 257 257 257 257 258 258 258 257
357 355 357 356 357 347 352 355 2 2 346 323 323 323 332 323 321 309 297 274 275 267 260 285 296 308 286 272 265 260 259 259 257 257 257 259 260 261
349 348 347 347 347 345 349 349 353 348 343 322 318 309 330 340 329 333 334 305 283 285 276 283 287 292 286 290 278 262 258 255 257 255 257 258 258 257
338 343 335 339 337 339 343 346 346 349 345 331 317 324 333 336 340 343 338 324 325 316 299 285 285 282 280 279 281 273 270 263 259 257 257 257 255 254
325 333 332 329 319 325 337 341 345 349 345 338 329 326 335 343 342 344 344 328 323 350 341 320 312 293 278 278 274 278 275 273 270 268 269 268 262 258
316 324 326 320 319 329 330 339 340 338 337 333 324 321 326 331 325 330 330 326 331 313 331 314 312 298 291 283 284 271 277 273 282 277 278 269 264 266
306 317 321 319 318 330 319 329 332 328 325 324 308 312 318 323 323 319 319 310 299 307 313 302 315 316 310 287 276 275 279 278 277 281 284 282 273 266
304 310 309 312 308 316 318 322 326 326 327 322 306 308 308 312 318 311 308 300 297 302 314 291 305 298 314 299 286 281 281 279 274 275 279 276 275 269
296 307 292 284 300 307 317 318 321 325 328 317 310 308 308 311 323 332 328 330 319 314 314 302 312 327 315 309 327 296 291 284 284 284 282 277 271 271
286 293 299 312 312 315 316 318 312 318 324 320 321 318 315 313 314 313 323 325 329 321 13 353 326 342 319 302 301 308 311 310 312 310 297 281 275 273
273 286 291 298 310 319 321 312 311 316 315 312 313 313 315 314 313 312 308 302 297 284 298 316 299 309 284 309 313 310 317 307 302 297 294 288 289 285
271 283 284 292 297 300 305 310 312 300 298 300 302 305 308 309 310 308 307 303 297 291 303 303 287 292 289 289 294 302 306 309 313 304 297 291 282 276
273 276 281 282 286 293 299 306 307 298 291 290 292 297 303 305 306 307 308 305 303 300 301 297 295 295 291 289 295 300 314 303 306 329 316 307 295 291
274 275 279 281 280 286 295 303 308 300 295 291 284 294 301 302 303 304 304 307 304 302 301 296 297 301 298 297 297 295 294 290 295 312 315 306 297 290
291 287 283 278 277 279 290 292 305 302 298 296 291 290 295 297 295 301 299 298 287 292 294 300 299 298 296 298 292 287 284 286 299 312 313 312 308 305
284 284 285 280 275 282 290 289 294 298 294 296 297 290 284 284 282 288 289 280 280 282 282 287 300 298 296 297 277 274 284 298 311 308 311 304 302 307
291 289 286 283 286 291 288 286 286 290 294 291 286 282 278 276 276 271 271 273 274 275 278 281 285 277 287 290 287 291 283 313 313 304 304 299 297 300
296 292 288 291 290 288 285 282 284 285 281 277 277 275 277 279 277 276 268 269 267 269 272 271 268 266 266 279 286 287 290 293 290 291 297 299 294 300
298 294 291 289 287 285 285 284 284 276 273 276 274 274 275 276 276 271 271 269 260 264 263 269 265 286 283 283 275 279 281 295 291 290 294 292 296 299
290 290 291 289 289 287 284 283 278 274 272 273 266 271 269 260 267 269 265 271 262 260 260 269 274 277 271 260 273 279 280 296 291 292 286 281 275 274
293 293 291 289 286 284 281 277 274 272 270 270 269 276 266 269 275 259 268 264 267 268 263 263 261 264 261 251 268 269 290 288 286 296 293 290 287 286
Height
850 846 844 842 840 835 830 826 827 813 801 798 800 801 803 803 805 806 806 805 805 804 804 808 809 809 812 815 818 821 824 827 828 830 833 836 837 838
852 847 844 842 840 836 832 827 825 823 816 807 801 800 798 796 799 799 800 800 799 797 795 796 800 801 803 806 809 812 815 817 821 824 825 827 831 833
851 848 844 841 838 836 833 829 825 821 821 810 801 798 795 793 792 792 793 792 790 789 789 789 790 793 794 797 799 803 805 808 811 814 817 819 822 824
850 846 844 840 837 836 833 830 826 823 820 813 803 801 790 791 788 786 787 786 786 782 782 783 782 784 786 788 789 791 794 797 799 802 805 809 812 814
850 846 843 840 837 835 833 830 827 824 821 816 806 807 794 791 784 780 779 779 779 779 777 777 779 779 779 782 783 782 784 786 788 790 794 796 800 802
847 846 842 839 836 834 831 829 825 821 818 815 810 801 796 791 794 788 775 778 775 774 770 769 772 772 772 774 778 778 777 777 779 780 782 785 788 790
844 842 841 838 835 833 830 827 823 820 817 813 809 805 801 795 794 791 784 784 773 771 766 766 767 763 763 764 769 771 771 772 772 773 775 776 778 781
840 838 836 835 831 829 828 826 823 819 816 813 810 805 801 799 800 792 788 788 776 772 770 763 762 760 757 754 764 763 764 765 764 763 765 765 768 770
836 834 831 830 828 825 824 821 819 818 816 813 809 806 801 797 792 789 787 787 782 772 774 763 760 751 750 755 759 761 759 753 754 756 756 757 757 759
832 830 827 825 824 821 818 816 814 812 810 809 807 804 801 797 794 790 786 784 779 776 774 765 759 755 751 750 748 749 747 746 747 750 747 749 749 752
828 826 823 821 819 817 814 811 810 808 806 805 803 800 798 795 793 789 786 782 776 772 771 765 758 751 745 744 740 739 739 740 739 738 739 740 745 743
824 821 819 818 815 812 809 807 803 802 801 798 796 794 793 791 790 788 786 782 780 771 766 763 761 757 747 738 736 734 731 732 730 733 733 734 734 735
818 815 813 812 811 809 806 803 800 798 796 795 793 791 789 786 784 783 782 780 778 775 769 768 759 758 755 742 734 731 732 729 730 728 727 728 729 729
810 809 808 806 805 804 803 800 797 794 792 790 789 787 785 782 780 778 776 774 772 768 765 763 759 756 750 744 739 731 730 727 727 724 720 718 720 721
804 802 801 801 799 798 797 795 792 790 787 785 782 780 780 777 774 772 770 769 766 763 761 759 756 751 748 741 737 729 723 721 721 717 715 713 713 716
798 796 794 794 793 791 789 788 786 784 781 779 777 774 772 771 769 767 763 761 757 755 755 753 750 746 741 738 734 727 723 721 717 716 714 712 712 710
792 789 787 786 785 784 783 781 780 777 774 772 770 768 766 764 762 761 758 756 753 749 747 746 744 741 736 732 724 723 718 716 714 711 709 703 700 699
784 782 780 779 778 776 775 774 772 771 769 766 763 761 759 757 755 754 752 749 747 744 742 740 738 734 731 728 724 720 718 716 711 705 703 699 692 692
778 775 773 773 771 770 768 767 765 764 762 760 757 755 752 750 748 747 745 744 741 738 735 734 732 730 726 720 720 719 715 712 709 703 700 696 689 687
771 769 767 766 765 763 761 760 758 757 756 754 752 749 746 744 742 740 739 737 735 732 730 728 727 724 722 717 712 710 710 707 705 700 696 689 686 680
764 762 761 760 758 756 753 752 751 749 748 746 744 742 739 737 735 733 731 729 727 725 721 720 719 718 716 713 707 703 701 701 701 697 692 686 680 674
759 756 754 753 751 748 746 745 742 741 739 737 735 733 730 727 726 724 722 720 718 715 713 711 710 709 708 705 700 696 695 694 692 690 688 684 681 670
752 749 747 746 743 740 738 736 734 731 729 727 726 724 721 717 716 714 712 711 709 707 705 703 701 701 698 696 693 689 688 686 683 678 676 674 670 665